1998-067QU

Last updated on Fri Dec 06 2019 00:02:12 GMT+0000 (Coordinated Universal Time)

1 44789U 98067QU 19339.41552365 .00007669 00000-0 13922-3 0 9996 2 44789 51.6446 232.3465 0006748 4.3230 355.7691 15.50602070 3074
UTC large
Height (km)
Speed (km/s)
/
Latitude / Longitude
Inclination (degrees)
Orbital Period (minutes)
Azimuth
Elevation
Range (km)
Doppler Factor

Next 0 passes for location: London (51.5072 / 0.1276)

Sorry there are no passes over London.